COSMOS 2251 DEB

Satellite information

Favourite Embed

Satellite Type and Status

DEBRISIN ORBIT

Key statistics

Satellite COSMOS 2251 DEB at a glance.

Uptime

11708

Days in orbit

Revolutions

≈ 14.1

Per day

Orbit

LEO

Low Earth Orbit

Inclination

73.9

Latest

Satellite identification and parameters

Extended collection of information and parameters for COSMOS 2251 DEB.

Object identification

Identified? True

Debris? True

Object name: COSMOS 2251 DEB

International designator: 1993-036YQ

Object number (NORAD): 34722

Object ID (CCSDS): 34722

Country: COMMONWEALTH OF INDEPENDENT STATES (CIS)

Current information (Y/N): Y

RCS size: SMALL

Orbital parameters

Period: 102.018 minutes

Inclination: 73.8842 deg

SMA: 7232.323 km

Apoapsis: 975.586 km

Periapsis: 732.79 km

RAAN: 266.1116 deg

Eccentricy: 0.0167855

Argument of periapsis: 222.1941 deg

Mean anomaly: 319.0916 deg

Mean motion: 14.11516681 rev/day

Mean motion (dot): 0.00000778 rev/day2

B* drag term: 0.00038827 1/REarth

Two-line elements (TLE)

Creation date: July 3, 2025, 5:26 p.m.

Reference frame: TEME

Reference center: EARTH

Epoch: July 2, 2025, 11:49 p.m. UTC

TLE line 0: 0 COSMOS 2251 DEB

TLE line 1: 1 34722U 93036YQ 25183.99237765 .00000778 00000-0 38827-3 0 9999

TLE line 2: 2 34722 73.8842 266.1116 0167855 222.1941 319.0916 14.11516681839483

Live tracking on map

Real-time ground track for satellite COSMOS 2251 DEB.

In-orbit conjunctions

A list of the most updated potential collisions computed for object COSMOS 2251 DEB.

Target Orbit TCA Probability of collision Miss distance Type
COSMOS 836 LEO 2025-02-13 23:15:29 0.0007253901 188.0 (m) PAYLOAD
FENGYUN 1C DEB SSO 2024-11-10 21:34:24 0.0002630059 303.0 (m) DEBRIS
COSMOS 2251 DEB LEO 2024-07-10 15:17:49 0.0001001228 954.0 (m) DEBRIS
VANGUARD 3 MEO 2024-07-01 11:47:37 0.0001199473 216.0 (m) PAYLOAD

Associated space launch

Military communications satellite. Destroyed in a collision with Iridium 33.

COSMOS 2251 DEB was lifted into orbit during the mission ‘Kosmos-3M | Strela-2M 51’, on board a Kosmos-3M space rocket.

The launch took place on June 16, 1993, 4:17 a.m. from 132/1 (132L).

For more information about the launch, click the button.

Launch to space Kosmos-3M | Strela-2M 51
Kosmos-3M | Strela-2M 51

Agency: N/A

Status: Launch Successful

Launch date: June 16, 1993, 4:17 a.m. UTC

Rocket: Kosmos-3M

Launch pad: 132/1 (132L)

Location: Plesetsk Cosmodrome, Russian Federation

...

Latest news about this satellite

There are no fresh news available about this satellite. Check back as we update our databases every day.


Newsletter sign-up

Weekly statistics, charts and insights to help you stay on top of the space industry.